TimeGMT,TemperatureF,Dew PointF,Humidity,Sea Level PressureIn,VisibilityMPH,Wind Direction,Wind SpeedMPH,Gust SpeedMPH,PrecipitationIn,Events,Conditions,WindDirDegrees,DateUTC
12:00 AM,28,28,98,,,Calm,Calm,,,,,,2013-12-05 00:00:00
12:20 AM,28.4,26.6,93,30.54,-9999.0,Calm,Calm,-,N/A,,Clear,0,2013-12-05 00:20:00
12:50 AM,28.4,26.6,93,30.54,-9999.0,North,3.5,-,N/A,,Clear,350,2013-12-05 00:50:00
1:20 AM,26.6,26.6,100,30.51,6.2,East,3.5,-,N/A,,Partly Cloudy,90,2013-12-05 01:20:00
1:50 AM,26.6,26.6,100,30.51,6.2,Variable,2.3,-,N/A,,Partly Cloudy,0,2013-12-05 01:50:00
3:00 AM,24,24,97,,,Calm,Calm,,,,,,2013-12-05 03:00:00
6:00 AM,26,25,95,,,Calm,Calm,,,,,,2013-12-05 06:00:00
6:50 AM,28.4,28.4,100,30.39,6.2,SSW,5.8,-,N/A,,Mostly Cloudy,210,2013-12-05 06:50:00
7:20 AM,35.6,35.6,100,30.36,6.2,SSW,10.4,-,N/A,,Mostly Cloudy,200,2013-12-05 07:20:00
7:50 AM,37.4,35.6,93,30.36,6.2,SW,5.8,-,N/A,,Mostly Cloudy,220,2013-12-05 07:50:00
8:20 AM,41.0,35.6,81,30.36,6.2,WSW,11.5,-,N/A,,Mostly Cloudy,250,2013-12-05 08:20:00
8:50 AM,42.8,37.4,81,30.36,6.2,WSW,10.4,-,N/A,,Partly Cloudy,250,2013-12-05 08:50:00
9:00 AM,42,38,79,,,Calm,Calm,,,,,,2013-12-05 09:00:00
9:20 AM,44.6,37.4,76,30.33,6.2,WSW,12.7,-,N/A,,Partly Cloudy,250,2013-12-05 09:20:00
9:50 AM,46.4,39.2,76,30.33,6.2,West,13.8,-,N/A,,Partly Cloudy,270,2013-12-05 09:50:00
10:20 AM,48.2,39.2,71,30.33,6.2,West,18.4,32.2,N/A,,Partly Cloudy,270,2013-12-05 10:20:00
10:50 AM,48.2,41.0,76,30.33,6.2,West,15.0,27.6,N/A,,Scattered Clouds,260,2013-12-05 10:50:00
11:20 AM,50.0,41.0,71,30.30,6.2,West,19.6,33.4,N/A,,Scattered Clouds,260,2013-12-05 11:20:00
11:50 AM,50.0,41.0,71,30.30,6.2,West,18.4,-,N/A,,Scattered Clouds,270,2013-12-05 11:50:00
12:00 PM,50,42,65,,,Calm,Calm,,,,,,2013-12-05 12:00:00
12:20 PM,50.0,42.8,76,30.27,6.2,West,20.7,33.4,N/A,,Partly Cloudy,270,2013-12-05 12:20:00
12:50 PM,50.0,42.8,76,30.27,6.2,West,19.6,35.7,N/A,,Mostly Cloudy,280,2013-12-05 12:50:00
1:20 PM,50.0,42.8,76,30.27,4.3,West,20.7,33.4,N/A,,Light Drizzle,280,2013-12-05 13:20:00
1:50 PM,50.0,44.6,82,30.24,6.2,West,20.7,35.7,N/A,,Mostly Cloudy,270,2013-12-05 13:50:00
2:20 PM,50.0,42.8,76,30.24,6.2,West,18.4,-,N/A,,Mostly Cloudy,280,2013-12-05 14:20:00
2:50 PM,50.0,42.8,76,30.21,6.2,West,21.9,-,N/A,,Mostly Cloudy,280,2013-12-05 14:50:00
3:00 PM,51,44,68,,,Calm,Calm,,,,,,2013-12-05 15:00:00
3:20 PM,51.8,44.6,76,30.21,6.2,West,20.7,-,N/A,,Scattered Clouds,280,2013-12-05 15:20:00
3:50 PM,51.8,44.6,76,30.21,6.2,West,18.4,-,N/A,,Scattered Clouds,280,2013-12-05 15:50:00
4:20 PM,51.8,44.6,76,30.21,6.2,WNW,18.4,-,N/A,,Mostly Cloudy,290,2013-12-05 16:20:00
4:50 PM,51.8,44.6,76,30.21,6.2,WNW,18.4,29.9,N/A,,Scattered Clouds,290,2013-12-05 16:50:00
5:20 PM,51.8,44.6,76,30.24,6.2,WNW,18.4,33.4,N/A,Rain,Light Rain Showers,290,2013-12-05 17:20:00
5:50 PM,51.8,46.4,82,30.24,6.2,WNW,18.4,-,N/A,Rain,Light Rain Showers,290,2013-12-05 17:50:00
6:00 PM,51,47,80,,,Calm,Calm,,,,,,2013-12-05 18:00:00
6:20 PM,50.0,46.4,87,30.24,6.2,NNW,13.8,-,N/A,Rain,Rain Showers,330,2013-12-05 18:20:00
6:50 PM,48.2,46.4,93,30.27,6.2,NNW,8.1,-,N/A,Rain,Light Rain Showers,330,2013-12-05 18:50:00
7:20 PM,48.2,46.4,93,30.27,6.2,NNW,5.8,-,N/A,Rain,Light Rain Showers,330,2013-12-05 19:20:00
7:50 PM,46.4,46.4,100,30.27,6.2,NNW,5.8,-,N/A,,Scattered Clouds,340,2013-12-05 19:50:00
8:20 PM,46.4,44.6,93,30.30,6.2,North,5.8,-,N/A,Rain,Light Rain Showers,360,2013-12-05 20:20:00
8:50 PM,46.4,44.6,93,30.30,6.2,North,4.6,-,N/A,,Scattered Clouds,360,2013-12-05 20:50:00
9:00 PM,46,44,89,,,Calm,Calm,,,,,,2013-12-05 21:00:00
9:20 PM,44.6,44.6,100,30.33,6.2,Variable,3.5,-,N/A,,Scattered Clouds,0,2013-12-05 21:20:00
9:50 PM,44.6,44.6,100,30.33,6.2,WNW,6.9,-,N/A,,Scattered Clouds,290,2013-12-05 21:50:00
10:20 PM,44.6,42.8,93,30.33,6.2,West,5.8,-,N/A,,Scattered Clouds,280,2013-12-05 22:20:00
10:50 PM,44.6,42.8,93,30.33,6.2,West,5.8,-,N/A,,Partly Cloudy,260,2013-12-05 22:50:00
11:20 PM,44.6,42.8,93,30.33,6.2,WNW,8.1,-,N/A,,Partly Cloudy,290,2013-12-05 23:20:00
11:50 PM,44.6,41.0,87,30.36,6.2,West,4.6,-,N/A,,Partly Cloudy,280,2013-12-05 23:50:00